Tracking 35035 objects as of 16-Aug-2026
HD Live streaming from Space Station
objects crossing your sky now

STARLINK-33570

Track STARLINK-33570 now!
10-day predictions
STARLINK-33570 is classified as:


NORAD ID: 62776
Int'l Code: 2025-015U
Launch date: January 21, 2025
Source: United States (US)
Launch site: AIR FORCE WESTERN TEST RANGE (AFWTR)
Your satellite tracking list
Your tracking list is empty




NASA's NSSDC Master Catalog

Two Line Element Set (TLE):
1 62776U 25015U   26228.45027390  .00011726  00000-0  35770-3 0  9993
2 62776  53.1585 297.3770 0000970  75.9659 284.1452 15.34394091 88921
Source of the keplerian elements: AFSPC